カタログに戻る

STARLINK-4143

運用中通信VLEO
NORAD 53029·PAYLOAD·🇺🇸 United States

打ち上げ Jul 7, 2022 から Cape Canaveral Space Force Station

Loading…

次のパス (今後24時間)

TLE

最新Source: CelesTrak SupGP

元期: Sep 15, 2026, 01:53 UTC

1 53029C 22076AV  26258.07895833  .00027496  00000+0  81237-3 0  2581
2 53029  53.1586 295.2364 0000823  91.8454  80.7131 15.34377579    16

AllMySatでSTARLINK-4143をリアルタイム追跡

Download on the App Store